Location: Unspecified
(0.0000°N, 0.0000°E)
Time: 01:28:17
(UTC+00:00)

Transit 4A - Pass Details

Date: 28 November 2019
Orbit: 870 x 975 km, 66.8° (Epoch: 11 December)

Event Time Altitude Azimuth Distance (km) Brightness Sun altitude
Rises 05:07:34 0° 11° (N) 3,439 10.8 -9.4°
Reaches altitude 10° 05:10:57 10° 31° (NNE) 2,505 10.3 -8.6°
Maximum altitude 05:14:35 17° 70° (ENE) 2,056 10.5 -7.7°
Drops below altitude 10° 05:18:13 10° 109° (ESE) 2,527 12.0 -6.9°
Sets 05:21:37 0° 129° (SE) 3,482 12.6 -6.1°
